Seattle, WA

6:17 AM PDT on April 20, 2018 (GMT -0700)
Seattle-Tacoma International

Weather History for KSEA - November, 2006

Change the Weather History Date:

Sunday, November 12, 2006

  Actual Average Record
Temperature  
Mean Temperature 46 °F 46 °F  
Max Temperature 49 °F 52 °F 60 °F (1953)
Min Temperature 42 °F 41 °F 13 °F (1955)
Degree Days  
Heating Degree Days 19 19  
Month to date heating degree days 180 211  
Since 1 July heating degree days 742 808  
Cooling Degree Days 0 0  
Month to date cooling degree days 0 0  
Year to date cooling degree days 270 189  
Moisture  
Dew Point 42 °F    
Average Humidity 86    
Maximum Humidity 100    
Minimum Humidity 71    
Precipitation  
Precipitation 1.07 in 0.23 in 1.52 in (1999)
Month to date precipitation 10.95 2.50  
Year to date precipitation 36.44 28.07  
Snow  
Snow 0.00 in - T in (1955)
Month to date snowfall  
Since 1 July snowfall  
Snow Depth -    
Sea Level Pressure  
Sea Level Pressure 29.76 in    
Wind  
Wind Speed 13 mph (South)    
Max Wind Speed 23 mph    
Max Gust Speed 29 mph    
Visibility 7 miles    
Events Rain    
T = Trace of Precipitation, MM = Missing Value Source: NWS Daily Summary

Daily Weather History Graph

Daily Weather History Graph

Search for Another Location

Airport or City:

Astronomy

Nov. 12, 2006 Rise Set
Actual Time 7:09 AM PST 4:36 PM PST
Civil Twilight 6:36 AM PST 5:09 PM PST
Nautical Twilight 5:59 AM PST 5:46 PM PST
Astronomical Twilight 5:23 AM PST 6:22 PM PST
Moon 11:35 PM PST (11/12) 1:39 PM PST (11/12)
Length of Visible Light 10h 33m
Length of Day
9h 27m
Waning Gibbous, 49% of the Moon is Illuminated
Nov 12
Waning Gibbous
Nov 20
New
Nov 27
First Quarter
Dec 4
Full
Dec 12
Last Quarter

Hourly Weather History & Observations

Time (PST) Temp. Windchill Dew Point Humidity Pressure Visibility Wind Dir Wind Speed Gust Speed Precip Events Conditions
12:15 AM 44.6 °F 37.4 °F 41.0 °F 87% 30.04 in 9.0 mi South 16.1 mph 23.0 mph 0.01 in Rain Light Rain
12:53 AM 45.0 °F 38.9 °F 41.0 °F 86% 30.06 in 10.0 mi SSW 12.7 mph - 0.01 in   Overcast
1:09 AM 44.6 °F 37.8 °F 39.2 °F 81% 30.04 in 10.0 mi SSW 15.0 mph - N/A   Overcast
1:53 AM 45.0 °F 38.2 °F 41.0 °F 86% 30.05 in 7.0 mi South 15.0 mph - 0.01 in Rain Rain
2:38 AM 44.6 °F 37.8 °F 42.8 °F 93% 30.02 in 10.0 mi South 15.0 mph - 0.03 in Rain Light Rain
2:53 AM 45.0 °F 38.9 °F 43.0 °F 93% 30.05 in 6.0 mi SSW 12.7 mph - 0.04 in Rain Rain
3:53 AM 45.0 °F 38.5 °F 43.0 °F 93% 30.01 in 8.0 mi South 13.8 mph - 0.06 in Rain Light Rain
4:53 AM 45.0 °F 36.9 °F 42.1 °F 90% 30.00 in 10.0 mi South 20.7 mph 25.3 mph 0.00 in   Overcast
5:53 AM 45.0 °F 37.6 °F 42.1 °F 90% 30.00 in 10.0 mi SSW 17.3 mph 25.3 mph 0.00 in   Overcast
6:53 AM 44.1 °F 37.4 °F 42.1 °F 93% 30.00 in 10.0 mi SW 13.8 mph - 0.02 in Rain Light Rain
7:07 AM 44.6 °F 38.4 °F 42.8 °F 93% 29.97 in 6.0 mi SSW 12.7 mph - 0.04 in Rain Rain
7:35 AM 44.6 °F 39.2 °F 42.8 °F 93% 29.97 in 5.0 mi SSW 10.4 mph 23.0 mph 0.12 in Rain Rain
7:47 AM 44.6 °F 38.8 °F 42.8 °F 93% 29.96 in 6.0 mi South 11.5 mph - 0.13 in Rain Light Rain
7:53 AM 44.1 °F 37.7 °F 42.1 °F 93% 29.98 in 10.0 mi South 12.7 mph - 0.13 in   Overcast
8:19 AM 44.6 °F 37.8 °F 42.8 °F 93% 29.95 in 7.0 mi South 15.0 mph - 0.00 in Rain Light Rain
8:32 AM 44.6 °F 38.1 °F 42.8 °F 93% 29.94 in 7.0 mi South 13.8 mph - 0.01 in Rain Light Rain
8:43 AM 44.6 °F 38.1 °F 42.8 °F 93% 29.94 in 6.0 mi South 13.8 mph - 0.03 in Rain Light Rain
8:53 AM 44.1 °F 38.6 °F 42.1 °F 93% 29.97 in 7.0 mi South 10.4 mph - 0.03 in Rain Light Rain
9:13 AM 44.6 °F 39.7 °F 42.8 °F 93% 29.93 in 7.0 mi SSE 9.2 mph - 0.02 in Rain Light Rain
9:53 AM 44.1 °F 37.4 °F 42.1 °F 93% 29.94 in 8.0 mi SSE 13.8 mph - 0.02 in Rain Light Rain
10:28 AM 44.6 °F 38.4 °F 42.8 °F 93% 29.89 in 7.0 mi SSE 12.7 mph - 0.03 in Rain Light Rain
10:53 AM 46.0 °F 39.0 °F 44.1 °F 93% 29.90 in 10.0 mi South 17.3 mph - 0.03 in   Overcast
11:53 AM 48.0 °F - 42.1 °F 80% 29.85 in 10.0 mi South 17.3 mph 24.2 mph N/A   Overcast
12:53 PM 48.0 °F - 42.1 °F 80% 29.82 in 7.0 mi South 12.7 mph - 0.00 in Rain Light Rain
1:53 PM 46.9 °F - 42.1 °F 83% 29.77 in 7.0 mi South 9.2 mph - 0.04 in Rain Light Rain
2:53 PM 48.0 °F - 39.9 °F 74% 29.71 in 7.0 mi South 10.4 mph - 0.00 in Rain Light Rain
3:53 PM 46.9 °F - 39.0 °F 74% 29.65 in 8.0 mi South 15.0 mph - 0.00 in Rain Light Rain
4:53 PM 46.0 °F 39.6 °F 37.9 °F 73% 29.56 in 10.0 mi South 15.0 mph - 0.01 in Rain Light Rain
5:53 PM 46.0 °F 41.0 °F 37.0 °F 71% 29.49 in 10.0 mi South 10.4 mph - 0.00 in Rain Light Rain
6:53 PM 44.1 °F 40.1 °F 41.0 °F 89% 29.41 in 4.0 mi SE 6.9 mph - 0.13 in Rain Light Rain
7:53 PM 43.0 °F 36.0 °F 41.0 °F 93% 29.31 in 6.0 mi ESE 13.8 mph - 0.13 in Rain Light Rain
8:48 PM 42.8 °F 36.2 °F 41.0 °F 93% 29.21 in 4.0 mi ESE 12.7 mph - 0.14 in Rain Light Rain
8:53 PM 43.0 °F 37.7 °F 41.0 °F 93% 29.23 in 5.0 mi ESE 9.2 mph - 0.15 in Rain Light Rain
9:34 PM 42.8 °F 37.5 °F 41.0 °F 93% 29.16 in 4.0 mi ESE 9.2 mph - 0.11 in Rain Light Rain
9:53 PM 43.0 °F 36.8 °F 41.0 °F 93% 29.16 in 3.0 mi ESE 11.5 mph - 0.14 in Rain Light Rain
10:53 PM 43.0 °F 38.2 °F 42.1 °F 97% 29.10 in 4.0 mi East 8.1 mph - 0.06 in Rain Light Rain
11:53 PM 42.1 °F 37.1 °F 42.1 °F 100% 29.07 in 2.5 mi NE 8.1 mph - 0.05 in Rain Rain